Weather History for Cold Bay, AK

Change the Weather History Date:

Wednesday, January 25, 2012

  Actual Average Record
Temperature  
Mean Temperature 10 °F 28 °F  
Max Temperature 14 °F 33 °F 48 °F (1963)
Min Temperature 6 °F 23 °F -5 °F (1956)
Degree Days  
Heating Degree Days 55 37  
Month to date heating degree days 1183 917  
Since 1 July heating degree days 5416 4994  
Cooling Degree Days 0    
Month to date cooling degree days 0  
Year to date cooling degree days 0  
Moisture  
Dew Point 6 °F    
Average Humidity 80    
Maximum Humidity 92    
Minimum Humidity 72    
Precipitation  
Precipitation T in 0.10 in 1.17 in (1975)
Month to date precipitation 3.34 2.56  
Year to date precipitation 3.34 2.56  
Snow  
Snow T in 0.50 in 2.80 in (1966)
Month to date snowfall 20.6 11.5  
Since 1 July snowfall 36.7  
Snow Depth 15.00 in    
Sea Level Pressure  
Sea Level Pressure 29.75 in    
Wind  
Wind Speed 11 mph (NNW)    
Max Wind Speed 18 mph    
Max Gust Speed 21 mph    
Visibility 5 miles    
Events Snow    
T = Trace of Precipitation, MM = Missing Value Source: NWS Daily Summary

Daily Weather History Graph

Daily Weather History Graph

Search for Another Location

Airport:

Trip Planner

Search our weather history database for the weather conditions in past years. The results will help you decide how hot, cold, wet, or windy it might be!

Date:

Astronomy

Jan. 25, 2012 Rise Set
Actual Time 9:54 AM AKST 6:12 PM AKST
Civil Twilight 9:13 AM AKST 6:53 PM AKST
Nautical Twilight 8:28 AM AKST 7:38 PM AKST
Astronomical Twilight 7:45 AM AKST 8:21 PM AKST
Moon 10:22 AM AKST (1/25) 10:00 PM AKST (1/25)
Length of Visible Light 9h 40m
Length of Day
8h 17m
Waxing Crescent, 7% of the Moon is Illuminated
Jan 25
Waxing Crescent
Jan 30
First Quarter
Feb 7
Full
Feb 14
Last Quarter
Feb 21
New

Hourly Weather History & Observations

Time (AKST) Temp. Windchill Dew Point Humidity Pressure Visibility Wind Dir Wind Speed Gust Speed Precip Events Conditions
12:53 AM 10.0 °F -1.9 °F 3.9 °F 76% 29.62 in 9.0 mi NNW 8.1 mph - 0.00 in Snow Light Snow
1:53 AM 10.9 °F -2.6 °F 3.9 °F 73% 29.63 in 8.0 mi NNW 10.4 mph - 0.00 in Snow Light Snow
3:53 AM 10.9 °F -4.1 °F 5.0 °F 77% 29.65 in 10.0 mi NNW 12.7 mph - 0.00 in Snow Light Snow
4:53 AM 12.0 °F 0.5 °F 6.1 °F 77% 29.66 in 5.0 mi NNW 8.1 mph - 0.00 in Snow Light Snow
5:53 AM 12.0 °F -1.3 °F 6.1 °F 77% 29.67 in 6.0 mi NW 10.4 mph - 0.00 in Snow Light Snow
6:23 AM 12.2 °F 0.7 °F 6.8 °F 79% 29.66 in 1.0 mi NW 8.1 mph - 0.00 in Snow Light Snow
6:34 AM 12.2 °F -0.2 °F 6.8 °F 79% 29.66 in 2.5 mi NW 9.2 mph - 0.00 in Snow Light Snow
6:53 AM 12.0 °F 2.7 °F 7.0 °F 80% 29.68 in 3.0 mi NNW 5.8 mph - 0.00 in Snow Light Snow
6:54 AM 12.2 °F 2.9 °F 6.8 °F 79% 29.67 in 2.0 mi NNW 5.8 mph - 0.00 in Snow Light Snow
7:03 AM 12.2 °F 0.7 °F 6.8 °F 79% 29.67 in 0.5 mi NNW 8.1 mph - 0.00 in Snow Snow
7:07 AM 12.2 °F 0.7 °F 6.8 °F 79% 29.67 in 0.5 mi NNW 8.1 mph - 0.00 in Snow Snow
7:09 AM 12.2 °F 1.7 °F 6.8 °F 79% 29.67 in 1.0 mi NNW 6.9 mph - 0.00 in Snow Light Snow
7:40 AM 12.2 °F -0.2 °F 8.6 °F 85% 29.67 in 0.8 mi NNW 9.2 mph - 0.00 in Snow Light Snow
7:48 AM 12.2 °F -0.2 °F 8.6 °F 85% 29.67 in 1.5 mi NNW 9.2 mph - 0.00 in Snow Light Snow
7:53 AM 12.0 °F 1.5 °F 8.1 °F 84% 29.69 in 1.5 mi NNW 6.9 mph - 0.00 in Snow Light Snow
7:55 AM 12.2 °F 1.7 °F 8.6 °F 85% 29.67 in 3.0 mi NNW 6.9 mph - 0.00 in Snow Light Snow
8:03 AM 12.2 °F 1.7 °F 8.6 °F 85% 29.67 in 7.0 mi North 6.9 mph - 0.00 in Snow Light Snow
8:53 AM 12.0 °F 0.5 °F 8.1 °F 84% 29.70 in 8.0 mi NNW 8.1 mph - 0.00 in Snow Light Snow
9:53 AM 12.0 °F -3.4 °F 6.1 °F 77% 29.72 in 9.0 mi NW 13.8 mph - 0.00 in Snow Light Snow
10:53 AM 12.9 °F -0.9 °F 6.1 °F 74% 29.74 in 3.0 mi WNW 11.5 mph - 0.00 in Snow Light Snow
11:53 AM 12.9 °F 1.6 °F 6.1 °F 74% 29.75 in 10.0 mi NNW 8.1 mph - 0.01 in   Overcast
12:53 PM 12.9 °F -2.2 °F 6.1 °F 74% 29.76 in 10.0 mi NNW 13.8 mph - N/A   Overcast
1:53 PM 12.9 °F -2.8 °F 7.0 °F 77% 29.77 in 10.0 mi NNW 15.0 mph - 0.01 in   Mostly Cloudy
2:53 PM 12.0 °F -3.4 °F 7.0 °F 80% 29.77 in 3.0 mi North 13.8 mph - 0.03 in Snow Light Snow
3:53 PM 12.0 °F -3.4 °F 6.1 °F 77% 29.78 in 4.0 mi NW 13.8 mph - 0.01 in Snow Light Snow
5:14 PM 10.4 °F -3.3 °F 5.0 °F 79% 29.78 in 1.8 mi NW 10.4 mph - 0.00 in Snow Light Snow
5:27 PM 10.4 °F -4.1 °F 6.8 °F 85% 29.78 in 1.2 mi NW 11.5 mph - 0.00 in Snow Light Snow
5:33 PM 10.4 °F -4.1 °F 6.8 °F 85% 29.78 in 3.0 mi NNW 11.5 mph - 0.00 in Snow Light Snow
5:53 PM 7.0 °F -8.3 °F 3.0 °F 84% 29.80 in 9.0 mi NW 11.5 mph - 0.00 in   Scattered Clouds
6:06 PM 10.4 °F -4.8 °F 5.0 °F 79% 29.79 in 2.5 mi NNW 12.7 mph - 0.00 in Snow Light Snow
6:19 PM 10.4 °F -3.3 °F 5.0 °F 79% 29.79 in 1.5 mi NW 10.4 mph - 0.00 in Snow Light Snow
6:32 PM 8.6 °F -7.0 °F 5.0 °F 85% 29.79 in 3.0 mi NNW 12.7 mph - 0.00 in Snow Light Snow
6:53 PM 9.0 °F -7.3 °F 5.0 °F 84% 29.81 in 4.0 mi NW 13.8 mph - 0.00 in Snow Light Snow
7:53 PM 9.0 °F -8.5 °F 3.9 °F 80% 29.82 in 6.0 mi NNW 16.1 mph - 0.00 in Snow Light Snow
8:53 PM 7.0 °F -10.4 °F -0.0 °F 73% 29.83 in 10.0 mi NW 15.0 mph - 0.00 in   Mostly Cloudy
9:49 PM 6.8 °F -8.6 °F -0.4 °F 72% 29.83 in 10.0 mi NNW 11.5 mph - N/A   Overcast
9:53 PM 7.0 °F -8.3 °F -0.0 °F 73% 29.85 in 10.0 mi NNW 11.5 mph - N/A   Overcast
10:13 PM 8.6 °F -5.5 °F 3.2 °F 79% 29.84 in 1.8 mi NW 10.4 mph - 0.00 in Snow Light Snow
10:22 PM 8.6 °F -4.7 °F 3.2 °F 79% 29.84 in 3.0 mi NNW 9.2 mph - 0.00 in Snow Light Snow
10:53 PM 9.0 °F -4.2 °F 3.9 °F 80% 29.86 in 2.5 mi NW 9.2 mph - 0.00 in Snow Light Snow
11:09 PM 10.4 °F -6.0 °F 6.8 °F 85% 29.85 in 1.0 mi NW 15.0 mph - 0.00 in Snow Light Snow
11:29 PM 8.6 °F -8.9 °F 6.8 °F 92% 29.86 in 1.0 mi NW 16.1 mph - 0.00 in Snow Light Snow
11:38 PM 8.6 °F -8.9 °F 5.0 °F 85% 29.86 in 2.0 mi NW 16.1 mph - 0.00 in Snow Light Snow
11:46 PM 8.6 °F -8.3 °F 3.2 °F 79% 29.86 in 8.0 mi NW 15.0 mph - 0.00 in   Overcast
11:53 PM 8.1 °F -9.6 °F 3.0 °F 80% 29.88 in 10.0 mi NNW 16.1 mph - 0.00 in   Overcast